Location: Newark
(19.2128°S, 49.7858°W)
Time: 02:55:41
(UTC+00:00)

Envisat - Pass Details

Date: 03 September 2019
Orbit: 764 x 766 km, 98.1° (Epoch: 16 September)

Event Time Altitude Azimuth Distance (km) Brightness Sun altitude
Rises 08:56:40 0° 41° (NE) 3,216 7.0 -7.7°
Reaches altitude 10° 08:59:21 10° 54° (NE) 2,297 6.6 -7.0°
Maximum altitude 09:03:21 24° 107° (ESE) 1,558 5.6 -6.1°
Drops below altitude 10° 09:07:22 10° 159° (SSE) 2,317 5.7 -5.1°
Sets 09:10:04 0° 172° (S) 3,250 6.3 -4.5°
